Location: ??????????
(44.2167°N, 135.5333°E)
Time: 15:00:00
(UTC+00:00)

Cosmos 1707 Rocket - Pass Details

Date: 15 June 2025
Orbit: 600 x 624 km, 82.5° (Epoch: 15 July)

Event Time Altitude Azimuth Distance (km) Brightness Sun altitude
Exits shadow 13:37:54 52° 148° (SSE) 756 3.6 -20.0°
Maximum altitude 13:38:44 65° 95° (E) 666 3.5 -20.0°
Drops below altitude 10° 13:43:00 10° 14° (NNE) 1,952 6.9 -20.3°
Sets 13:45:13 0° 12° (NNE) 2,859 8.0 -20.4°
